{"data":{"norad_id":64314,"intl_designator":"2025-123Z","name":"STARLINK-34354","alt_names":[],"object_type":"PAYLOAD","status":"ACTIVE","operator":null,"country":"US","launch_date":"2025-06-08","launch_site_code":"AFWTR","launch_vehicle":null,"mission":null,"orbit_class":"UNKNOWN","rcs_meters":null,"size_class":null,"mass_kg":null,"dimensions":null,"purposes":["comms"],"wikipedia_slug":null,"has_3d_model":false,"image_url":null,"decayed_at":null,"tle_current":{"epoch":"2026-05-25T00:34:02.362080Z","epoch_age_seconds":63180,"freshness":"FRESH","line1":"1 64314U 25123Z   26145.02363845  .00005758  00000+0  48986-3 0  9992","line2":"2 64314  70.0013   1.9529 0002550 266.0942  93.9925 14.98336263 53053","mean_motion":14.98336263,"eccentricity":0.000255,"inclination_deg":70.0013,"raan_deg":1.9529,"arg_perigee_deg":266.0942,"mean_anomaly_deg":93.9925,"bstar":0.00048986,"rev_number":5305,"period_min":96.106597401361,"perigee_km":570.2642289526,"apogee_km":573.80881744943,"semimajor_km":6950.173523201,"source":"CELESTRAK","updated_at":"2026-05-25T13:38:20.391620Z"}}}